1506384001.12,62190,14.63,74434.8,0.45,-22.17,-19.75,0,*4C
1506384002.3,62191,14.63,74436.5,0.45,-21.63,-19.07,0,*48
1506384003.53,62192,14.63,74438.3,0.45,-19.71,-17.79,0,*44
1506384004.74,62193,14.63,74438.0,0.43,-18.49,-17.17,0,*41
1506384005.98,62194,14.63,74434.8,0.41,-18.83,-17.45,0,*45
1506384007.2,62195,14.63,74436.0,0.43,-19.31,-17.83,0,*44
1506384008.43,62196,14.63,74434.5,0.43,-19.31,-18.11,0,*43
1506384009.63,62197,14.63,74434.8,0.41,-20.09,-18.73,0,*45
1506384010.82,62198,14.63,74432.3,0.43,-20.73,-19.95,0,*4C
1506384012.07,62199,14.63,74438.3,0.41,-21.83,-20.59,0,*4B
1506384013.31,62200,14.63,74440.0,0.41,-22.57,-21.27,0,*4A
1506384014.55,62201,14.63,74436.3,0.41,-21.43,-20.35,0,*4F
1506384015.77,62202,14.63,74436.3,0.41,-19.81,-18.99,0,*44
1506384017.01,62203,14.63,74438.0,0.41,-18.99,-18.35,0,*4B
1506384018.25,62204,14.63,74436.5,0.41,-18.25,-17.03,0,*41
1506384019.5,62205,14.63,74432.8,0.41,-17.79,-16.31,0,*46
1506384020.72,62206,14.63,74436.8,0.41,-18.21,-16.55,0,*45
1506384021.91,62207,14.63,74436.3,0.39,-20.43,-18.17,0,*4C
1506384023.13,62208,14.63,74436.3,0.39,-21.83,-19.71,0,*4F
1506384024.33,62209,14.63,74438.8,0.39,-22.57,-20.89,0,*49
1506384025.61,62210,14.63,74440.3,0.37,-23.29,-21.23,0,*46
1506384026.83,62211,14.63,74436.0,0.39,-23.23,-21.47,0,*41
1506384028.04,62212,14.63,74438.3,0.39,-22.03,-21.03,0,*41
1506384029.23,62213,14.63,74436.0,0.39,-22.03,-20.93,0,*48
1506384030.48,62214,14.63,74446.8,0.39,-22.77,-21.33,0,*47
1506384031.72,62215,14.63,74444.3,0.37,-23.79,-21.87,0,*48
1506384032.96,62216,14.63,74448.0,0.37,-23.49,-21.09,0,*4E
1506384034.18,62217,14.63,74436.5,0.37,-23.13,-21.13,0,*4B
1506384035.41,62218,14.63,74440.5,0.37,-23.65,-21.73,0,*43
1506384036.63,62219,14.63,74446.0,0.35,-22.03,-20.83,0,*4F
1506384037.83,62220,14.63,74440.0,0.35,-22.03,-20.59,0,*42
1506384039.07,62221,14.63,74440.0,0.33,-21.83,-19.91,0,*40
1506384040.27,62222,14.63,74440.0,0.35,-21.77,-19.37,0,*42
1506384041.51,62223,14.63,74444.5,0.37,-23.03,-19.91,0,*4C
1506384042.73,62224,14.63,74436.5,0.37,-22.37,-20.29,0,*44
1506384043.93,62225,14.63,74442.3,0.35,-22.63,-20.63,0,*48
1506384045.17,62226,14.63,74444.5,0.37,-22.31,-19.99,0,*41
1506384046.36,62227,14.63,74442.5,0.35,-22.67,-19.91,0,*49
1506384047.58,62228,14.63,74440.3,0.33,-21.13,-19.13,0,*4A
1506384048.82,62229,14.63,74438.0,0.35,-21.57,-19.23,0,*4E
1506384050.06,62230,14.63,74428.0,0.33,-20.53,-18.69,0,*4A
1506384051.26,62231,14.63,74432.5,0.35,-18.07,-16.55,0,*46
1506384052.5,62232,14.63,74428.5,0.35,-16.51,-14.97,0,*44
1506384053.77,62233,14.63,74428.8,0.33,-17.21,-14.97,0,*45
1506384054.99,62234,14.63,74430.8,0.33,-16.93,-14.65,0,*47
1506384056.26,62235,14.63,74426.3,0.33,-17.07,-14.83,0,*42
1506384057.52,62236,14.63,74430.8,0.33,-18.89,-17.17,0,*46
1506384058.74,62237,14.63,74430.5,0.35,-18.73,-17.79,0,*4C
1506384059.98,62238,14.63,74436.0,0.33,-18.83,-17.59,0,*48
1506384061.22,62239,14.63,74434.3,0.33,-18.65,-17.17,0,*4B
1506384062.45,62240,14.63,74434.3,0.33,-18.89,-16.45,0,*41
1506384063.71,62241,14.63,74440.8,0.33,-19.27,-16.75,0,*46
1506384064.96,62242,14.63,74434.3,0.33,-19.31,-16.83,0,*4B
1506384066.2,62243,14.56,74438.8,0.33,-20.25,-17.63,0,*4A
1506384067.41,62244,14.63,74438.3,0.33,-20.63,-18.41,0,*40
1506384068.6,62245,14.63,74436.0,0.31,-20.39,-18.49,0,*44
1506384069.82,62246,14.63,74436.3,0.31,-21.03,-18.65,0,*41
1506384071.04,62247,14.63,74442.8,0.31,-20.63,-18.55,0,*44
1506384072.23,62248,14.63,74440.5,0.31,-21.17,-18.65,0,*4A
1506384073.46,62249,14.63,74438.8,0.31,-21.77,-19.57,0,*4D
1506384074.67,62250,14.63,74440.8,0.33,-20.89,-18.83,0,*4F
1506384075.91,62251,14.63,74438.8,0.33,-21.27,-18.69,0,*4F
1506384077.16,62252,14.63,74436.8,0.31,-21.83,-19.57,0,*4C
1506384078.4,62253,14.63,74432.8,0.33,-21.03,-19.47,0,*46
1506384079.6,62254,14.63,74430.8,0.31,-20.35,-18.99,0,*45
1506384080.85,62255,14.63,74436.5,0.29,-19.47,-18.01,0,*43
1506384082.05,62256,14.63,74440.0,0.31,-19.81,-17.31,0,*4F
1506384083.29,62257,14.63,74444.3,0.31,-19.27,-16.83,0,*4A
1506384084.51,62258,14.63,74440.8,0.31,-19.31,-16.75,0,*4B
1506384085.74,62259,14.63,74444.3,0.31,-18.07,-15.85,0,*42
1506384086.96,62260,14.63,74444.0,0.31,-16.27,-14.15,0,*4C
1506384088.17,62261,14.63,74442.8,0.31,-14.69,-12.79,0,*49
1506384089.38,62262,14.63,74444.5,0.31,-13.93,-11.59,0,*49
1506384090.6,62263,14.63,74444.0,0.31,-13.93,-11.29,0,*4F
1506384091.85,62264,14.63,74446.3,0.31,-13.83,-11.37,0,*46
1506384093.07,62265,14.63,74446.5,0.31,-13.87,-11.45,0,*46
1506384094.29,62266,14.63,74444.8,0.31,-14.11,-11.59,0,*40
1506384095.54,62267,14.63,74446.0,0.31,-13.83,-11.37,0,*45
1506384096.76,62268,14.63,74446.8,0.31,-12.93,-10.63,0,*4A
1506384097.98,62269,14.63,74450.3,0.31,-12.07,-9.79,0,*75
1506384099.17,62270,14.63,74446.8,0.31,-10.97,-8.93,0,*73
1506384100.38,62271,14.63,74450.0,0.31,-10.31,-8.11,0,*74
1506384101.59,62272,14.63,74446.5,0.31,-9.75,-7.35,0,*46
1506384102.8,62273,14.63,74446.8,0.31,-9.75,-6.93,0,*4A
1506384104.0,62274,14.63,74444.0,0.31,-9.93,-6.63,0,*4A
1506384105.19,62275,14.63,74444.3,0.31,-10.15,-6.51,0,*7C
1506384106.39,62276,14.63,74442.8,0.31,-9.67,-6.27,0,*43
1506384107.6,62277,14.63,74436.5,0.31,-8.67,-5.65,0,*46
1506384108.83,62278,14.63,74430.8,0.31,-8.03,-5.19,0,*40
1506384110.03,62279,14.63,74432.5,0.33,-7.49,-4.99,0,*4B
1506384111.29,62280,14.63,74434.0,0.33,-7.01,-4.69,0,*4E
1506384112.5,62281,14.63,74434.3,0.33,-6.77,-4.49,0,*4D
1506384113.7,62282,14.63,74432.5,0.33,-6.81,-4.45,0,*4B
1506384114.94,62283,14.63,74434.0,0.33,-7.05,-4.57,0,*44
1506384116.15,62284,14.63,74432.0,0.35,-7.15,-4.77,0,*46
1506384117.38,62285,14.63,74432.8,0.35,-7.31,-4.89,0,*40
1506384118.62,62286,14.63,74436.3,0.35,-7.27,-4.81,0,*4C
1506384119.85,62287,14.63,74432.3,0.35,-7.27,-4.89,0,*45
1506384121.09,62288,14.63,74434.3,0.35,-7.31,-5.03,0,*4E
1506384122.33,62289,14.63,74432.3,0.35,-7.65,-5.15,0,*49
1506384123.54,62290,14.56,74430.8,0.35,-8.07,-5.35,0,*48
1506384124.77,62291,14.63,74438.5,0.33,-8.67,-5.65,0,*4C
1506384125.95,62292,14.63,74438.5,0.35,-9.19,-6.13,0,*43
1506384127.16,62293,14.63,74434.0,0.35,-9.83,-6.51,0,*47
1506384128.37,62294,14.63,74438.5,0.33,-10.45,-6.77,0,*70
1506384129.58,62295,14.63,74438.5,0.35,-10.93,-6.97,0,*72
1506384130.8,62296,14.63,74440.0,0.35,-11.37,-7.23,0,*70
1506384132.05,62297,14.56,74438.8,0.35,-11.93,-7.39,0,*74
1506384133.29,62298,14.63,74442.0,0.35,-12.07,-7.65,0,*7C
1506384134.51,62299,14.63,74444.8,0.35,-12.25,-7.77,0,*7E
1506384135.71,62300,14.56,74444.5,0.35,-12.21,-7.87,0,*74
1506384136.9,62301,14.63,74446.8,0.35,-12.03,-7.83,0,*71
1506384138.14,62302,14.63,74446.0,0.35,-11.37,-7.65,0,*7E
1506384139.36,62303,14.63,74446.3,0.35,-10.97,-7.43,0,*70
1506384140.62,62304,14.63,74446.5,0.37,-10.79,-7.27,0,*77
1506384141.86,62305,14.63,74448.8,0.37,-10.67,-7.15,0,*78
1506384143.07,62306,14.63,74444.3,0.37,-10.85,-7.15,0,*77
1506384144.32,62307,14.56,74442.5,0.37,-10.67,-7.19,0,*76
1506384145.54,62308,14.63,74444.8,0.37,-10.27,-7.05,0,*70
1506384146.77,62309,14.63,74442.0,0.37,-9.57,-6.77,0,*4A
1506384147.97,62310,14.63,74442.5,0.37,-9.19,-6.73,0,*4C
1506384149.19,62311,14.63,74444.3,0.37,-8.89,-6.59,0,*4D
1506384150.39,62312,14.63,74446.8,0.37,-8.63,-6.47,0,*45
1506384151.62,62313,14.63,74448.3,0.37,-8.37,-6.23,0,*47
1506384152.85,62314,14.63,74448.5,0.37,-8.45,-6.23,0,*45
1506384154.07,62315,14.63,74446.0,0.37,-8.59,-6.23,0,*49
1506384155.28,62316,14.63,74448.0,0.37,-8.75,-6.51,0,*41
1506384156.49,62317,14.63,74452.5,0.37,-8.75,-6.51,0,*40
1506384157.72,62318,14.63,74454.3,0.37,-8.51,-6.39,0,*47
1506384158.97,62319,14.63,74442.0,0.37,-8.11,-6.23,0,*49
1506384160.23,62320,14.63,74438.5,0.37,-7.57,-5.73,0,*48
1506384161.46,62321,14.63,74438.5,0.37,-7.05,-5.43,0,*4D
1506384162.69,62322,14.63,74446.0,0.37,-6.51,-4.93,0,*42
1506384163.9,62323,14.56,74442.3,0.39,-5.89,-4.49,0,*4C
1506384165.11,62324,14.63,74438.0,0.37,-5.47,-4.25,0,*4D
1506384166.34,62325,14.63,74438.8,0.37,-5.27,-3.91,0,*42
1506384167.57,62326,14.56,74436.3,0.37,-5.07,-3.79,0,*45
1506384168.82,62327,14.63,74438.8,0.37,-4.89,-3.63,0,*48
1506384170.04,62328,14.63,74436.8,0.39,-4.85,-3.59,0,*4C
1506384171.29,62329,14.63,74440.8,0.37,-5.07,-3.67,0,*45
1506384172.47,62330,14.56,74440.0,0.39,-5.39,-3.87,0,*40
1506384173.7,62331,14.56,74440.3,0.37,-5.69,-4.25,0,*45
1506384174.94,62332,14.63,74442.8,0.39,-5.93,-4.73,0,*4E
1506384176.19,62333,14.63,74442.3,0.37,-6.27,-5.03,0,*4B
1506384177.43,62334,14.56,74440.5,0.39,-6.19,-5.31,0,*4E
1506384178.67,62335,14.56,74436.0,0.39,-5.77,-5.27,0,*43
1506384179.89,62336,14.63,74440.8,0.39,-5.55,-5.27,0,*40
1506384181.1,62337,14.56,74436.3,0.39,-5.51,-5.03,0,*43
1506384182.37,62338,14.63,74440.8,0.37,-5.69,-5.27,0,*4F
1506384183.58,62339,14.63,74440.8,0.39,-6.05,-5.27,0,*49
1506384184.79,62340,14.63,74434.8,0.39,-6.47,-5.27,0,*41
1506384186.0,62341,14.63,74438.5,0.39,-7.01,-5.51,0,*42
1506384187.24,62342,14.63,74434.5,0.39,-7.65,-5.89,0,*46
1506384188.42,62343,14.56,74434.3,0.39,-8.45,-6.81,0,*41
1506384189.65,62344,14.63,74438.5,0.39,-9.49,-7.95,0,*4F
1506384190.87,62345,14.63,74436.0,0.39,-10.63,-9.01,0,*7D
1506384192.06,62346,14.63,74436.0,0.39,-12.29,-9.71,0,*75
1506384193.28,62347,14.56,74432.3,0.39,-13.33,-10.23,0,*41
1506384194.53,62348,14.63,74440.0,0.39,-13.29,-10.41,0,*41
1506384195.75,62349,14.63,74438.8,0.39,-12.57,-10.19,0,*45
1506384196.97,62350,14.63,74438.3,0.39,-12.11,-9.71,0,*79
1506384198.2,62351,14.63,74438.3,0.39,-11.97,-9.41,0,*76
1506384199.44,62352,14.63,74438.5,0.39,-11.73,-9.15,0,*7E
1506384200.64,62353,14.63,74436.3,0.39,-11.37,-8.75,0,*78
1506384201.82,62354,14.56,74440.5,0.39,-11.19,-8.63,0,*74
1506384203.02,62355,14.63,74438.5,0.37,-11.23,-8.75,0,*75
1506384204.2,62356,14.63,74438.8,0.39,-11.15,-8.59,0,*73
1506384205.44,62357,14.63,74442.0,0.37,-10.67,-8.33,0,*74
1506384206.64,62358,14.63,74444.3,0.39,-10.09,-7.95,0,*7E
1506384207.87,62359,14.56,74438.8,0.37,-9.83,-7.83,0,*4C
1506384209.08,62360,14.63,74436.5,0.39,-9.79,-7.77,0,*46
1506384210.3,62361,14.56,74434.5,0.39,-9.57,-7.61,0,*4C
1506384211.51,62362,14.56,74440.0,0.39,-9.41,-7.49,0,*42
1506384212.75,62363,14.63,74444.0,0.39,-9.11,-7.27,0,*4E
1506384213.98,62364,14.56,74440.3,0.37,-8.93,-7.05,0,*4C
1506384215.19,62365,14.56,74438.0,0.39,-8.85,-6.93,0,*4A
1506384216.42,62366,14.63,74444.5,0.37,-8.81,-6.85,0,*44
1506384217.6,62367,14.63,74444.0,0.39,-8.97,-6.85,0,*4C
1506384218.79,62368,14.56,74438.0,0.39,-8.85,-6.81,0,*44
1506384220.02,62369,14.56,74438.8,0.37,-8.81,-6.89,0,*47
1506384221.22,62370,14.63,74442.5,0.39,-8.85,-6.81,0,*4D
1506384222.4,62371,14.63,74442.3,0.39,-8.97,-6.81,0,*4F
1506384223.61,62372,14.56,74440.5,0.37,-8.93,-6.85,0,*42
1506384224.8,62373,14.56,74440.3,0.39,-9.01,-6.89,0,*4B
1506384226.01,62374,14.56,74436.8,0.39,-9.41,-6.85,0,*44
1506384227.2,62375,14.56,74432.0,0.39,-8.85,-6.55,0,*41
1506384228.39,62376,14.63,74430.0,0.39,-8.63,-6.35,0,*4C
1506384229.57,62377,14.63,74434.3,0.39,-8.59,-6.35,0,*44
1506384230.76,62378,14.63,74438.5,0.39,-8.63,-6.47,0,*47
1506384231.94,62379,14.63,74440.8,0.39,-8.97,-6.81,0,*47
1506384233.16,62380,14.63,74442.3,0.39,-9.37,-7.15,0,*46
1506384234.37,62381,14.63,74438.8,0.39,-9.41,-7.23,0,*43
1506384235.61,62382,14.63,74434.8,0.39,-9.41,-7.27,0,*44
1506384236.82,62383,14.63,74428.8,0.39,-9.15,-7.11,0,*41
1506384238.01,62384,14.56,74426.8,0.39,-8.63,-6.55,0,*47
1506384239.19,62385,14.63,74434.5,0.39,-8.63,-6.55,0,*46
1506384240.38,62386,14.63,74434.8,0.39,-8.71,-6.55,0,*46
1506384241.57,62387,14.63,74430.5,0.39,-8.89,-6.73,0,*44
1506384242.78,62388,14.56,74428.8,0.39,-9.49,-7.11,0,*43
1506384243.99,62389,14.63,74430.3,0.39,-9.71,-7.35,0,*4F
1506384245.19,62390,14.56,74426.8,0.37,-9.89,-7.87,0,*47
1506384246.39,62391,14.56,74424.3,0.39,-10.05,-7.95,0,*77
1506384247.6,62392,14.56,74428.5,0.39,-10.31,-8.03,0,*73
1506384248.79,62393,14.63,74432.0,0.39,-10.35,-8.17,0,*73
1506384250.0,62394,14.56,74430.5,0.39,-10.41,-8.17,0,*77
1506384251.2,62395,14.63,74432.8,0.41,-10.35,-8.17,0,*7A
1506384252.4,62396,14.63,74432.8,0.41,-10.89,-8.71,0,*7E
1506384253.63,62397,14.63,74432.5,0.41,-11.11,-8.81,0,*70
1506384254.85,62398,14.56,74434.5,0.39,-11.29,-8.85,0,*7F
1506384256.05,62399,14.63,74436.3,0.39,-11.45,-9.01,0,*79
1506384257.26,62400,14.56,74438.8,0.39,-11.55,-9.19,0,*76
1506384258.45,62401,14.63,74440.5,0.39,-11.41,-9.05,0,*7F
1506384259.68,62402,14.56,74444.8,0.37,-11.23,-9.15,0,*77
1506384260.95,62403,14.63,74448.3,0.37,-11.67,-9.53,0,*74
1506384262.16,62404,14.56,74446.5,0.39,-11.89,-9.67,0,*7A
1506384263.37,62405,14.63,74444.8,0.39,-11.89,-9.67,0,*7B
1506384264.59,62406,14.56,74440.3,0.39,-12.15,-9.93,0,*75
1506384265.81,62407,14.56,74436.8,0.39,-12.57,-10.19,0,*48
1506384267.03,62408,14.63,74440.5,0.39,-12.83,-10.31,0,*44
1506384268.28,62409,14.63,74448.5,0.39,-12.83,-10.41,0,*42
1506384269.47,62410,14.56,74440.0,0.39,-13.19,-10.53,0,*4B
1506384270.67,62411,14.63,74440.3,0.39,-13.07,-10.53,0,*45
1506384271.91,62412,14.63,74440.3,0.37,-13.11,-10.67,0,*48
1506384273.14,62413,14.63,74436.3,0.37,-13.19,-10.97,0,*4E
1506384274.33,62414,14.56,74436.8,0.39,-13.15,-10.93,0,*4F
1506384275.55,62415,14.56,74440.0,0.39,-13.01,-10.89,0,*40
1506384276.74,62416,14.56,74442.3,0.39,-13.07,-10.93,0,*4E
1506384277.96,62417,14.56,74436.8,0.39,-13.19,-10.75,0,*48
1506384279.21,62418,14.56,74434.3,0.39,-13.33,-10.63,0,*48
1506384280.43,62419,14.56,74434.5,0.37,-13.73,-10.97,0,*48
1506384281.68,62420,14.56,74434.3,0.37,-14.23,-11.37,0,*4B
1506384282.94,62421,14.56,74438.3,0.37,-14.75,-11.67,0,*4C
1506384284.18,62422,14.63,74440.8,0.39,-15.43,-12.11,0,*47
1506384285.4,62423,14.63,74436.3,0.37,-15.67,-12.25,0,*49
1506384286.65,62424,14.56,74438.5,0.37,-14.97,-11.51,0,*40
1506384287.88,62425,14.56,74436.8,0.37,-13.51,-10.57,0,*4B
1506384289.11,62426,14.63,74438.3,0.37,-12.61,-9.89,0,*71
1506384290.35,62427,14.63,74438.3,0.37,-12.07,-9.75,0,*73
1506384291.58,62428,14.56,74432.5,0.37,-12.61,-10.09,0,*4F
1506384292.8,62429,14.56,74432.0,0.37,-13.11,-10.27,0,*44
1506384294.04,62430,14.56,74434.0,0.37,-12.75,-9.75,0,*70
1506384295.28,62431,14.63,74440.5,0.37,-12.61,-9.71,0,*70
1506384296.52,62432,14.56,74442.0,0.39,-12.35,-9.49,0,*77
1506384297.76,62433,14.56,74440.8,0.37,-11.93,-9.27,0,*7F
1506384298.96,62434,14.56,74444.5,0.37,-12.39,-9.19,0,*76
1506384300.22,62435,14.56,74444.3,0.37,-12.65,-9.15,0,*72
1506384301.45,62436,14.63,74444.8,0.37,-12.61,-9.05,0,*74
1506384302.68,62437,14.56,74436.8,0.37,-12.61,-9.27,0,*75
1506384303.95,62438,14.56,74440.8,0.37,-12.53,-9.41,0,*7B
1506384305.15,62439,14.56,74446.3,0.37,-12.25,-9.31,0,*7C
1506384306.41,62440,14.56,74440.5,0.37,-12.35,-9.41,0,*74
1506384307.64,62441,14.56,74444.8,0.37,-12.35,-9.31,0,*72
1506384308.88,62442,14.56,74446.5,0.39,-12.83,-9.49,0,*7D
1506384310.1,62443,14.56,74448.8,0.37,-13.47,-10.01,0,*4F
1506384311.34,62444,14.56,74444.5,0.37,-13.87,-10.27,0,*40
1506384312.6,62445,14.56,74450.0,0.39,-13.83,-10.41,0,*4B
1506384313.85,62446,14.56,74446.3,0.37,-14.11,-10.71,0,*49
1506384315.07,62447,14.56,74446.8,0.37,-14.23,-10.93,0,*45
1506384316.29,62448,14.63,74448.0,0.37,-14.11,-10.97,0,*4F
1506384317.54,62449,14.56,74450.3,0.39,-14.51,-11.37,0,*4F
1506384318.76,62450,14.56,74454.0,0.39,-14.55,-11.45,0,*46
1506384320.0,62451,14.56,74452.0,0.37,-14.61,-11.51,0,*4B
1506384321.24,62452,14.56,74450.3,0.37,-14.61,-11.63,0,*49
1506384322.46,62453,14.56,74448.0,0.39,-14.61,-11.67,0,*42
1506384323.7,62454,14.56,74448.3,0.37,-14.61,-11.63,0,*4F
1506384324.95,62455,14.63,74458.8,0.37,-14.61,-11.63,0,*4E
1506384326.18,62456,14.63,74456.8,0.37,-14.61,-11.77,0,*48
1506384327.42,62457,14.56,74458.3,0.37,-14.61,-11.67,0,*48
1506384328.7,62458,14.63,74458.0,0.37,-14.47,-11.51,0,*46
1506384329.95,62459,14.56,74456.8,0.37,-14.47,-11.41,0,*46
1506384331.17,62460,14.56,74462.5,0.37,-14.37,-11.11,0,*4E
1506384332.42,62461,14.56,74460.5,0.37,-14.05,-10.35,0,*49
1506384333.64,62462,14.63,74456.5,0.37,-12.93,-9.75,0,*7F
1506384334.89,62463,14.56,74452.8,0.37,-12.79,-9.61,0,*7F
1506384336.11,62464,14.56,74454.5,0.35,-13.07,-9.83,0,*7E
1506384337.33,62465,14.56,74450.5,0.35,-13.65,-10.41,0,*4D
1506384338.56,62466,14.56,74452.8,0.35,-14.37,-11.07,0,*4D
1506384339.78,62467,14.63,74458.5,0.35,-14.61,-11.37,0,*4C
1506384341.05,62468,14.56,74456.5,0.37,-14.47,-11.55,0,*41
1506384342.32,62469,14.56,74452.0,0.37,-14.05,-11.37,0,*42
1506384343.55,62470,14.63,74458.8,0.35,-13.51,-10.79,0,*45
1506384344.8,62471,14.56,74458.0,0.35,-13.37,-10.71,0,*4C
1506384346.0,62472,14.56,74458.3,0.35,-13.11,-10.53,0,*4B
1506384347.2,62473,14.56,74460.0,0.35,-12.93,-10.27,0,*42
1506384348.43,62474,14.56,74458.3,0.35,-13.01,-10.35,0,*4C
1506384349.63,62475,14.56,74456.0,0.35,-13.19,-10.45,0,*43
1506384350.88,62476,14.56,74454.8,0.35,-13.37,-10.41,0,*48
1506384352.08,62477,14.63,74458.5,0.35,-13.93,-10.57,0,*40
1506384353.3,62478,14.56,74454.5,0.33,-14.37,-10.89,0,*43
1506384354.52,62479,14.56,74448.3,0.35,-14.51,-10.85,0,*48
1506384355.76,62480,14.56,74444.8,0.33,-14.37,-10.63,0,*40
1506384356.99,62481,14.56,74442.8,0.33,-14.11,-10.49,0,*4D
1506384358.2,62482,14.56,74442.8,0.35,-13.07,-9.83,0,*76
1506384359.42,62483,14.56,74436.0,0.35,-12.15,-9.05,0,*7B
1506384360.68,62484,14.56,74448.0,0.33,-12.57,-9.37,0,*7D
1506384361.89,62485,14.63,74454.8,0.33,-13.07,-9.75,0,*7E
1506384363.12,62486,14.63,74450.5,0.33,-13.43,-10.19,0,*4F
1506384364.34,62487,14.63,74444.5,0.35,-13.61,-10.35,0,*46
1506384365.54,62488,14.56,74446.8,0.35,-13.47,-10.31,0,*49
1506384366.79,62489,14.63,74450.0,0.33,-13.37,-10.19,0,*43
1506384368.03,62490,14.63,74448.8,0.33,-13.29,-9.93,0,*7E
1506384369.27,62491,14.56,74444.0,0.35,-13.01,-9.83,0,*72
1506384370.49,62492,14.63,74446.0,0.35,-13.11,-9.83,0,*70
1506384371.72,62493,14.56,74440.3,0.33,-13.29,-9.67,0,*76
1506384372.93,62494,14.56,74442.0,0.35,-13.01,-9.31,0,*7E
1506384374.12,62495,14.63,74442.8,0.35,-12.93,-9.19,0,*7F
1506384375.31,62496,14.63,74444.3,0.35,-12.39,-9.01,0,*75
1506384376.52,62497,14.56,74440.0,0.35,-11.81,-8.59,0,*78
1506384377.76,62498,14.56,74446.0,0.35,-11.89,-8.51,0,*77
1506384378.96,62499,14.63,74446.8,0.35,-11.97,-8.67,0,*7C
1506384380.2,62500,14.63,74442.8,0.35,-12.07,-8.81,0,*7F
1506384381.42,62501,14.63,74440.5,0.33,-12.21,-8.85,0,*78
1506384382.63,62502,14.56,74440.0,0.33,-12.25,-8.71,0,*74
1506384383.82,62503,14.56,74442.3,0.35,-12.21,-8.75,0,*73
1506384385.03,62504,14.63,74440.5,0.33,-12.39,-9.05,0,*7D
1506384386.24,62505,14.63,74442.5,0.35,-12.53,-9.27,0,*76
1506384387.45,62506,14.56,74438.0,0.33,-12.43,-9.31,0,*75
1506384388.71,62507,14.63,74438.3,0.33,-12.53,-9.45,0,*76
1506384389.9,62508,14.63,74440.8,0.35,-12.47,-9.31,0,*79
1506384391.11,62509,14.56,74436.5,0.33,-12.29,-9.23,0,*75
1506384392.34,62510,14.56,74436.8,0.33,-12.07,-9.05,0,*75
1506384393.58,62511,14.63,74438.5,0.33,-12.07,-9.05,0,*74
1506384394.78,62512,14.56,74438.5,0.35,-12.21,-9.01,0,*71
1506384395.97,62513,14.56,74432.0,0.35,-12.47,-9.19,0,*79
1506384397.2,62514,14.63,74436.5,0.33,-12.53,-9.23,0,*74
1506384398.44,62515,14.56,74440.0,0.33,-12.53,-9.23,0,*75
1506384399.7,62516,14.63,74444.5,0.33,-12.53,-9.11,0,*77
1506384400.97,62517,14.56,74442.8,0.33,-12.53,-9.11,0,*76
1506384402.2,62518,14.63,74446.0,0.33,-12.57,-8.97,0,*72
1506384403.42,62519,14.63,74444.5,0.35,-12.71,-8.97,0,*71
1506384404.63,62520,14.63,74446.0,0.33,-12.93,-9.05,0,*7B
1506384405.84,62521,14.63,74448.0,0.35,-12.89,-9.15,0,*76
1506384407.05,62522,14.56,74444.8,0.35,-12.61,-9.01,0,*76
1506384408.29,62523,14.63,74448.5,0.33,-12.65,-8.97,0,*7B
1506384409.48,62524,14.56,74450.3,0.35,-12.89,-9.01,0,*76
1506384410.72,62525,14.63,74450.3,0.33,-12.93,-9.11,0,*7B
1506384411.91,62526,14.63,74454.5,0.35,-13.07,-9.01,0,*73
1506384413.14,62527,14.56,74450.3,0.33,-13.29,-9.19,0,*71
1506384414.36,62528,14.56,74450.3,0.35,-13.33,-9.05,0,*7E
1506384415.56,62529,14.56,74442.8,0.35,-12.53,-8.67,0,*7D
1506384416.77,62530,14.63,74446.5,0.33,-12.21,-8.67,0,*76
1506384417.98,62531,14.56,74446.8,0.33,-12.25,-8.55,0,*72
1506384419.18,62532,14.63,74450.8,0.33,-12.39,-8.55,0,*7C
1506384420.39,62533,14.63,74452.0,0.35,-12.47,-8.51,0,*76
1506384421.58,62534,14.63,74454.3,0.35,-12.89,-8.63,0,*72
1506384422.81,62535,14.63,74450.0,0.35,-13.01,-8.81,0,*7E
1506384424.0,62536,14.56,74444.0,0.35,-12.93,-8.59,0,*72
1506384425.2,62537,14.63,74444.8,0.35,-12.61,-8.59,0,*7E
1506384426.41,62538,14.63,74434.8,0.33,-12.93,-8.67,0,*77
1506384427.61,62539,14.63,74438.5,0.35,-13.01,-8.67,0,*7A
1506384428.82,62540,14.63,74446.0,0.35,-13.07,-8.81,0,*7A
1506384430.04,62541,14.56,74440.8,0.33,-13.51,-9.05,0,*73
1506384431.25,62542,14.56,74440.5,0.33,-13.69,-9.23,0,*7F
1506384432.46,62543,14.63,74436.5,0.35,-13.65,-9.15,0,*71
1506384433.69,62544,14.56,74434.0,0.33,-13.97,-9.31,0,*7B
1506384434.89,62545,14.63,74434.8,0.35,-14.11,-9.27,0,*72
1506384436.16,62546,14.63,74436.5,0.33,-13.97,-9.45,0,*7A
1506384437.37,62547,14.63,74434.5,0.35,-13.93,-9.41,0,*7D
1506384438.62,62548,14.63,74430.5,0.35,-14.05,-9.53,0,*79
1506384439.84,62549,14.63,74430.3,0.33,-14.37,-9.75,0,*7B
1506384441.06,62550,14.63,74428.5,0.35,-14.51,-9.75,0,*75
1506384442.3,62551,14.63,74428.8,0.33,-14.15,-9.45,0,*71
1506384443.56,62552,14.63,74428.0,0.33,-13.79,-9.11,0,*7E
1506384444.77,62553,14.56,74426.8,0.33,-13.69,-9.19,0,*76
1506384445.98,62554,14.63,74424.0,0.33,-13.93,-9.31,0,*7E
1506384447.22,62555,14.63,74424.0,0.35,-14.05,-9.45,0,*72
1506384448.42,62556,14.63,74428.3,0.35,-14.19,-9.71,0,*7B
1506384449.64,62557,14.63,74430.8,0.35,-14.11,-9.61,0,*73
1506384450.85,62558,14.63,74426.5,0.35,-13.79,-9.31,0,*70
1506384452.08,62559,14.56,74424.3,0.33,-12.83,-8.97,0,*7E
1506384453.31,62560,14.63,74424.3,0.33,-11.73,-8.41,0,*73
1506384454.52,62561,14.63,74430.0,0.35,-11.23,-7.95,0,*77
1506384455.76,62562,14.56,74428.0,0.33,-11.41,-7.91,0,*72
1506384457.0,62563,14.56,74428.0,0.35,-11.67,-7.99,0,*79
1506384458.24,62564,14.63,74434.8,0.35,-11.67,-7.99,0,*7E
1506384459.47,62565,14.63,74434.3,0.33,-11.85,-8.25,0,*7D
1506384460.7,62566,14.63,74434.5,0.35,-11.93,-8.21,0,*7B
1506384461.93,62567,14.63,74438.8,0.33,-11.81,-8.25,0,*7B
1506384463.11,62568,14.56,74432.3,0.35,-12.03,-8.25,0,*7B
1506384464.34,62569,14.63,74436.8,0.33,-12.11,-8.41,0,*7D
1506384465.55,62570,14.56,74438.5,0.33,-12.43,-8.63,0,*72
1506384466.78,62571,14.63,74436.0,0.33,-12.57,-8.71,0,*75
1506384468.04,62572,14.63,74438.0,0.33,-12.79,-9.11,0,*7D
1506384469.25,62573,14.56,74434.5,0.35,-12.39,-9.15,0,*7A
1506384470.48,62574,14.63,74434.5,0.33,-11.37,-8.85,0,*7E
1506384471.67,62575,14.63,74440.3,0.35,-10.45,-8.33,0,*70
1506384472.88,62576,14.56,74442.3,0.35,-10.23,-7.95,0,*70
1506384474.11,62577,14.63,74446.8,0.33,-10.57,-8.11,0,*77
1506384475.31,62578,14.63,74446.0,0.35,-11.51,-8.67,0,*78
1506384476.51,62579,14.56,74438.8,0.35,-12.25,-9.27,0,*7C
1506384477.77,62580,14.56,74436.5,0.33,-12.79,-9.49,0,*7D
1506384479.0,62581,14.63,74436.8,0.33,-12.83,-9.75,0,*76
1506384480.19,62582,14.63,74434.8,0.35,-12.89,-9.71,0,*7D
1506384481.41,62583,14.63,74436.3,0.33,-12.93,-9.75,0,*75
1506384482.6,62584,14.56,74432.3,0.35,-12.93,-9.75,0,*74
1506384483.84,62585,14.63,74436.0,0.35,-12.79,-9.61,0,*74
1506384485.06,62586,14.63,74438.8,0.35,-12.89,-9.53,0,*79
1506384486.27,62587,14.63,74436.3,0.35,-13.11,-9.83,0,*75
1506384487.49,62588,14.63,74438.8,0.33,-13.43,-10.05,0,*4D
1506384488.68,62589,14.63,74438.0,0.35,-13.19,-9.89,0,*79
1506384489.92,62590,14.63,74438.3,0.35,-12.65,-9.61,0,*7D
1506384491.13,62591,14.63,74440.3,0.35,-12.39,-9.41,0,*77
1506384492.34,62592,14.63,74440.5,0.33,-12.25,-9.19,0,*72
1506384493.54,62593,14.63,74440.3,0.35,-12.21,-9.05,0,*7C
1506384494.78,62594,14.63,74444.5,0.33,-12.21,-9.11,0,*78
1506384496.0,62595,14.63,74448.8,0.35,-12.53,-9.19,0,*72
1506384497.21,62596,14.63,74440.0,0.33,-13.07,-9.67,0,*7E
1506384498.42,62597,14.63,74446.8,0.35,-13.37,-9.89,0,*7A
1506384499.67,62598,14.63,74440.8,0.33,-13.83,-9.93,0,*77
1506384500.86,62599,14.63,74438.0,0.35,-13.51,-9.97,0,*7B
1506384502.11,62600,14.63,74446.8,0.33,-13.29,-10.27,0,*42
1506384503.33,62601,14.63,74450.3,0.35,-12.53,-9.97,0,*7A
1506384504.56,62602,14.63,74444.8,0.33,-11.81,-9.19,0,*75